South Bend, IN

5:01 AM EST on January 24, 2018 (GMT -0500)
South Bend Regional

Weather History for KSBN - January, 2014

Change the Weather History Date:

Tuesday, January 21, 2014

  Actual Average Record
Temperature  
Mean Temperature 13 °F 24 °F  
Max Temperature 17 °F 31 °F 66 °F (1906)
Min Temperature 8 °F 17 °F -21 °F (1984)
Degree Days  
Heating Degree Days 52 41  
Month to date heating degree days 877 853  
Since 1 July heating degree days 3363 3244  
Cooling Degree Days 0 0  
Month to date cooling degree days 0 0  
Year to date cooling degree days 0 0  
Moisture  
Dew Point -2 °F    
Average Humidity 58    
Maximum Humidity 74    
Minimum Humidity 42    
Precipitation  
Precipitation T in 0.07 in 1.50 in (1904)
Month to date precipitation 2.35 1.64  
Year to date precipitation 2.35 1.64  
Snow  
Snow 0.00 in 0.60 in 6.80 in (1959)
Month to date snowfall 13.7  
Since 1 July snowfall 36.2  
Snow Depth -    
Sea Level Pressure  
Sea Level Pressure 30.19 in    
Wind  
Wind Speed 9 mph (NE)    
Max Wind Speed 22 mph    
Max Gust Speed 30 mph    
Visibility 10 miles    
Events Snow    
T = Trace of Precipitation, MM = Missing Value Source: NWS Daily Summary

Daily Weather History Graph

Daily Weather History Graph

Search for Another Location

Airport or City:

Trip Planner

Search our weather history database for the weather conditions in past years. The results will help you decide how hot, cold, wet, or windy it might be!

Date:

Astronomy

Jan. 21, 2014 Rise Set
Actual Time 8:06 AM EST 5:47 PM EST
Civil Twilight 7:36 AM EST 6:17 PM EST
Nautical Twilight 7:02 AM EST 6:51 PM EST
Astronomical Twilight 6:29 AM EST 7:24 PM EST
Moon 11:24 PM EST (1/21) 10:31 AM EST (1/21)
Length of Visible Light 10h 40m
Length of Day
9h 40m
Waning Gibbous, 75% of the Moon is Illuminated
Jan 21
Waning Gibbous
Jan 24
Last Quarter
Jan 30
New
Feb 6
First Quarter
Feb 14
Full

Hourly Weather History & Observations

Time (EST) Temp. Windchill Dew Point Humidity Pressure Visibility Wind Dir Wind Speed Gust Speed Precip Events Conditions
12:20 AM 15.8 °F 0.3 °F 8.6 °F 73% 30.00 in 10.0 mi NE 16.1 mph 20.7 mph N/A   Overcast
12:54 AM 15.1 °F -0.6 °F 6.1 °F 68% 30.04 in 10.0 mi NNE 16.1 mph 21.9 mph N/A   Overcast
1:54 AM 14.0 °F -2.5 °F 3.9 °F 64% 30.05 in 9.0 mi NNE 17.3 mph 24.2 mph 0.00 in   Overcast
2:54 AM 12.9 °F -0.9 °F 3.0 °F 65% 30.09 in 8.0 mi NE 11.5 mph - 0.00 in Snow Light Snow
3:54 AM 12.0 °F -2.0 °F -2.0 °F 53% 30.12 in 10.0 mi NE 11.5 mph 24.2 mph 0.00 in   Overcast
4:54 AM 10.9 °F -3.4 °F -2.9 °F 54% 30.14 in 10.0 mi NE 11.5 mph - N/A   Overcast
5:54 AM 10.0 °F -5.2 °F -4.0 °F 53% 30.17 in 10.0 mi NNE 12.7 mph 23.0 mph N/A   Scattered Clouds
6:54 AM 9.0 °F -3.2 °F -4.0 °F 56% 30.19 in 10.0 mi NNE 8.1 mph - N/A   Overcast
7:54 AM 9.0 °F -5.1 °F -5.1 °F 53% 30.21 in 10.0 mi NNE 10.4 mph - N/A   Overcast
8:54 AM 8.1 °F -4.3 °F -6.0 °F 53% 30.23 in 10.0 mi NE 8.1 mph 18.4 mph N/A   Clear
9:54 AM 8.1 °F -6.2 °F -6.0 °F 53% 30.25 in 10.0 mi NE 10.4 mph 17.3 mph N/A   Clear
10:54 AM 10.0 °F -5.9 °F -5.1 °F 51% 30.27 in 10.0 mi NE 13.8 mph 18.4 mph N/A   Clear
11:54 AM 12.0 °F 0.5 °F -4.0 °F 49% 30.26 in 10.0 mi NE 8.1 mph - N/A   Clear
12:54 PM 12.9 °F -0.9 °F -4.0 °F 47% 30.24 in 10.0 mi NE 11.5 mph - N/A   Clear
1:54 PM 14.0 °F 0.5 °F -4.0 °F 45% 30.24 in 10.0 mi North 11.5 mph - N/A   Clear
2:54 PM 15.1 °F 1.8 °F -2.9 °F 45% 30.22 in 10.0 mi North 11.5 mph - N/A   Clear
3:54 PM 15.1 °F 6.4 °F -4.0 °F 43% 30.23 in 10.0 mi North 5.8 mph - N/A   Clear
4:54 PM 12.9 °F 5.2 °F -2.9 °F 49% 30.25 in 10.0 mi North 4.6 mph - N/A   Scattered Clouds
5:54 PM 12.9 °F 6.9 °F -2.9 °F 49% 30.25 in 10.0 mi North 3.5 mph - N/A   Overcast
6:54 PM 12.0 °F - -2.9 °F 51% 30.25 in 10.0 mi Calm Calm - N/A   Overcast
7:54 PM 12.9 °F 6.9 °F -2.9 °F 49% 30.24 in 10.0 mi SSE 3.5 mph - N/A   Overcast
8:54 PM 12.0 °F 4.1 °F -2.9 °F 51% 30.23 in 10.0 mi SE 4.6 mph - N/A   Overcast
9:54 PM 12.0 °F 2.7 °F -2.0 °F 53% 30.23 in 10.0 mi SSE 5.8 mph - N/A   Overcast
10:54 PM 10.9 °F 1.4 °F -2.9 °F 54% 30.23 in 10.0 mi South 5.8 mph - N/A   Overcast
11:54 PM 10.0 °F 0.4 °F -2.0 °F 58% 30.22 in 10.0 mi South 5.8 mph - N/A   Overcast